Elizabethtown, NC

9:27 AM EDT on October 17, 2017 (GMT -0400)
Elizabethtown

Weather History for KEYF - April, 2013

Change the Weather History Date:

Friday, April 12, 2013

  Actual Average (KILM) Record (KILM)
Temperature  
Mean Temperature 75 °F -  
Max Temperature 83 °F 73 °F 92 °F (1930)
Min Temperature 67 °F 48 °F 32 °F (1989)
Cooling Degree Days 10    
Growing Degree Days 25 (Base 50)    
Moisture  
Dew Point 67 °F    
Average Humidity 83    
Maximum Humidity 99    
Minimum Humidity 55    
Precipitation  
Precipitation 0.16 in - - ()
Sea Level Pressure  
Sea Level Pressure 29.77 in    
Wind  
Wind Speed 11 mph (South)    
Max Wind Speed 18 mph    
Max Gust Speed 28 mph    
Visibility 10 miles    
Events Rain    
Averages and records for this station are not official NWS values.
T = Trace of Precipitation, MM = Missing Value Source: NWS Daily Summary

Daily Weather History Graph

Daily Weather History Graph

Search for Another Location

Airport or City:

Trip Planner

Search our weather history database for the weather conditions in past years. The results will help you decide how hot, cold, wet, or windy it might be!

Date:

Astronomy

Apr. 12, 2013 Rise Set
Actual Time 6:45 AM EDT 7:43 PM EDT
Civil Twilight 6:19 AM EDT 8:09 PM EDT
Nautical Twilight 5:49 AM EDT 8:39 PM EDT
Astronomical Twilight 5:17 AM EDT 9:11 PM EDT
Moon 7:59 AM EDT (4/12) 10:06 PM EDT (4/12)
Length of Visible Light 13h 49m
Length of Day
12h 57m
Waxing Crescent, 5% of the Moon is Illuminated
Apr 12
Waxing Crescent
Apr 18
First Quarter
Apr 25
Full
May 2
Last Quarter
May 9
New

Hourly Weather History & Observations

Time (EDT) Temp. Heat Index Dew Point Humidity Pressure Visibility Wind Dir Wind Speed Gust Speed Precip Events Conditions
12:15 AM 71.8 °F - 67.3 °F 86% 29.87 in 10.0 mi South 13.8 mph 19.6 mph N/A   Overcast
12:35 AM 71.8 °F - 67.1 °F 85% 29.87 in 10.0 mi South 11.5 mph 19.6 mph N/A   Overcast
1:15 AM 71.8 °F - 66.4 °F 83% 29.87 in 10.0 mi South 13.8 mph 18.4 mph N/A   Mostly Cloudy
1:35 AM 71.6 °F - 66.2 °F 83% 29.87 in 10.0 mi South 10.4 mph 16.1 mph N/A   Mostly Cloudy
1:55 AM 71.6 °F - 65.8 °F 82% 29.86 in 10.0 mi South 11.5 mph - N/A   Mostly Cloudy
2:15 AM 71.2 °F - 65.7 °F 82% 29.85 in 10.0 mi South 12.7 mph 18.4 mph N/A   Mostly Cloudy
2:35 AM 71.1 °F - 65.5 °F 82% 29.85 in 10.0 mi South 11.5 mph 19.6 mph N/A   Mostly Cloudy
2:55 AM 71.1 °F - 65.1 °F 81% 29.84 in 10.0 mi South 9.2 mph 24.2 mph N/A   Scattered Clouds
3:15 AM 70.7 °F - 64.9 °F 82% 29.83 in 10.0 mi South 8.1 mph 16.1 mph N/A   Scattered Clouds
3:35 AM 70.7 °F - 65.3 °F 83% 29.83 in 10.0 mi South 16.1 mph 21.9 mph N/A   Mostly Cloudy
3:55 AM 70.5 °F - 65.3 °F 83% 29.83 in 10.0 mi South 11.5 mph 18.4 mph N/A   Mostly Cloudy
4:15 AM 70.0 °F - 65.1 °F 85% 29.81 in 10.0 mi South 10.4 mph 19.6 mph N/A   Scattered Clouds
4:35 AM 70.2 °F - 64.9 °F 83% 29.81 in 10.0 mi South 13.8 mph - N/A   Scattered Clouds
4:55 AM 70.2 °F - 64.6 °F 82% 29.81 in 10.0 mi South 11.5 mph 21.9 mph N/A   Scattered Clouds
5:15 AM 70.2 °F - 64.8 °F 83% 29.82 in 10.0 mi South 12.7 mph 18.4 mph N/A Rain Light Rain
5:35 AM 69.3 °F - 65.7 °F 88% 29.84 in 7.0 mi SSW 10.4 mph 18.4 mph 0.02 in Rain Rain
5:55 AM 68.2 °F - 66.2 °F 93% 29.83 in 5.0 mi SSE 6.9 mph - 0.08 in Rain Heavy Rain
6:15 AM 68.0 °F - 66.9 °F 96% 29.80 in 7.0 mi SSE 8.1 mph - 0.04 in Rain Light Rain
6:35 AM 68.0 °F - 66.9 °F 96% 29.78 in 10.0 mi SSE 11.5 mph - 0.04 in   Overcast
6:55 AM 67.8 °F - 66.7 °F 96% 29.78 in 10.0 mi South 9.2 mph - 0.04 in   Overcast
7:15 AM 68.0 °F - 67.1 °F 97% 29.79 in 10.0 mi SSE 11.5 mph 21.9 mph N/A   Overcast
7:35 AM 68.0 °F - 67.1 °F 97% 29.78 in 10.0 mi SSE 10.4 mph 16.1 mph N/A   Overcast
7:55 AM 68.0 °F - 66.7 °F 96% 29.80 in 10.0 mi South 9.2 mph 16.1 mph N/A   Overcast
8:15 AM 67.8 °F - 66.6 °F 96% 29.80 in 7.0 mi SSE 12.7 mph 17.3 mph N/A Rain Light Rain
8:35 AM 67.5 °F - 66.9 °F 98% 29.80 in 10.0 mi SSE 8.1 mph - N/A   Overcast
8:55 AM 67.6 °F - 67.1 °F 98% 29.80 in 10.0 mi SSE 8.1 mph - N/A   Overcast
9:15 AM 68.0 °F - 67.3 °F 98% 29.80 in 10.0 mi SSE 8.1 mph - N/A   Overcast
9:35 AM 68.0 °F - 67.5 °F 98% 29.80 in 7.0 mi SSE 4.6 mph - 0.01 in Rain Light Rain
9:55 AM 68.4 °F - 68.0 °F 99% 29.80 in 10.0 mi SSE 5.8 mph - 0.01 in   Overcast
10:15 AM 69.8 °F - 69.3 °F 98% 29.79 in 10.0 mi South 6.9 mph - N/A   Overcast
10:35 AM 71.1 °F - 69.8 °F 96% 29.79 in 10.0 mi South 6.9 mph - N/A   Overcast
10:55 AM 73.2 °F - 70.3 °F 91% 29.79 in 10.0 mi SSW 8.1 mph - N/A   Overcast
11:15 AM 73.4 °F - 69.8 °F 88% 29.79 in 10.0 mi SSW 9.2 mph - N/A   Overcast
11:35 AM 75.2 °F - 69.8 °F 83% 29.79 in 10.0 mi South 9.2 mph - N/A   Overcast
11:55 AM 75.2 °F - 70.3 °F 85% 29.78 in 10.0 mi SSW 6.9 mph - N/A   Overcast
12:15 PM 77.0 °F - 69.1 °F 76% 29.77 in 10.0 mi South 9.2 mph 17.3 mph N/A   Overcast
12:35 PM 78.3 °F - 68.2 °F 71% 29.77 in 10.0 mi SSW 13.8 mph 20.7 mph N/A   Mostly Cloudy
12:55 PM 80.4 °F 83.0 °F 67.5 °F 65% 29.77 in 10.0 mi SW 13.8 mph 24.2 mph N/A   Mostly Cloudy
1:15 PM 79.7 °F - 66.7 °F 64% 29.76 in 10.0 mi South 18.4 mph 27.6 mph N/A   Overcast
1:35 PM 81.1 °F 83.5 °F 67.1 °F 62% 29.74 in 10.0 mi SSW 12.7 mph 21.9 mph N/A   Overcast
1:55 PM 81.0 °F 83.2 °F 66.4 °F 61% 29.73 in 10.0 mi South 12.7 mph 24.2 mph N/A   Overcast
2:15 PM 81.3 °F 83.8 °F 67.1 °F 62% 29.72 in 10.0 mi South 11.5 mph 19.6 mph N/A   Mostly Cloudy
2:35 PM 81.1 °F 83.4 °F 66.7 °F 61% 29.73 in 10.0 mi SW 15.0 mph 21.9 mph N/A   Overcast
2:55 PM 82.0 °F 84.3 °F 66.6 °F 59% 29.71 in 10.0 mi SSW 12.7 mph 24.2 mph N/A   Mostly Cloudy
3:15 PM 83.3 °F 85.7 °F 66.6 °F 57% 29.70 in 10.0 mi SSW 11.5 mph 21.9 mph N/A   Mostly Cloudy
3:35 PM 82.4 °F 84.4 °F 65.7 °F 57% 29.69 in 10.0 mi SW 15.0 mph 21.9 mph N/A   Scattered Clouds
3:55 PM 83.3 °F 85.3 °F 65.8 °F 55% 29.68 in 10.0 mi SSW 12.7 mph - N/A   Scattered Clouds
4:15 PM 83.3 °F 85.3 °F 65.5 °F 55% 29.68 in 10.0 mi SSW 13.8 mph 27.6 mph N/A   Mostly Cloudy
4:35 PM 78.1 °F - 65.8 °F 66% 29.70 in 10.0 mi WSW 11.5 mph 23.0 mph 0.01 in Rain Rain
4:55 PM 76.3 °F - 69.4 °F 79% 29.69 in 10.0 mi WSW 4.6 mph - 0.03 in   Mostly Cloudy
5:15 PM 77.4 °F - 66.0 °F 68% 29.70 in 10.0 mi West 10.4 mph - N/A   Scattered Clouds
5:35 PM 77.7 °F - 66.4 °F 68% 29.70 in 10.0 mi South 9.2 mph - N/A   Scattered Clouds
5:55 PM 73.6 °F - 68.0 °F 83% 29.70 in 10.0 mi South 8.1 mph - N/A   Mostly Cloudy
6:15 PM 74.7 °F - 68.0 °F 80% 29.70 in 10.0 mi SSE 8.1 mph - N/A   Scattered Clouds
6:35 PM 74.3 °F - 67.5 °F 79% 29.70 in 10.0 mi South 9.2 mph - N/A   Clear
6:55 PM 74.3 °F - 66.7 °F 77% 29.70 in 10.0 mi South 6.9 mph - N/A   Clear
7:15 PM 73.8 °F - 67.1 °F 80% 29.71 in 10.0 mi South 8.1 mph - N/A   Clear
7:35 PM 73.4 °F - 67.6 °F 82% 29.71 in 10.0 mi South 9.2 mph - N/A   Clear
7:55 PM 72.5 °F - 68.2 °F 86% 29.72 in 10.0 mi South 8.1 mph - N/A   Clear
8:15 PM 71.6 °F - 68.5 °F 90% 29.72 in 10.0 mi South 6.9 mph - N/A   Clear
8:35 PM 71.4 °F - 68.5 °F 91% 29.72 in 10.0 mi South 5.8 mph - N/A   Clear
8:55 PM 70.7 °F - 68.4 °F 92% 29.72 in 10.0 mi South 5.8 mph - N/A   Clear
9:15 PM 70.5 °F - 68.4 °F 93% 29.73 in 10.0 mi South 5.8 mph - N/A   Clear
9:35 PM 69.8 °F - 68.4 °F 95% 29.73 in 10.0 mi South 6.9 mph - N/A   Clear
9:55 PM 70.0 °F - 68.5 °F 95% 29.74 in 10.0 mi South 6.9 mph - N/A   Clear
10:15 PM 69.8 °F - 68.5 °F 96% 29.75 in 10.0 mi South 5.8 mph - N/A   Clear
10:35 PM 69.8 °F - 68.5 °F 96% 29.75 in 10.0 mi SSW 6.9 mph - N/A   Clear
10:55 PM 69.8 °F - 68.7 °F 96% 29.75 in 10.0 mi SSW 6.9 mph - N/A   Clear
11:15 PM 69.8 °F - 68.5 °F 96% 29.76 in 7.0 mi SSW 6.9 mph - N/A   Clear
11:35 PM 69.8 °F - 68.9 °F 97% 29.77 in 7.0 mi SW 8.1 mph - N/A   Clear
11:55 PM 69.6 °F - 68.5 °F 96% 29.77 in 7.0 mi SW 6.9 mph - N/A   Clear